Location: Bonny Doon Airfield
(37.0704°N, 122.1252°W)
Time: 21:51:49
(UTC-07:00)

BREEZE M DEB (TANK) - Visible Passes

Search period start: 27 July 2016 00:00
Search period end: 06 August 2016 00:00
Orbit: 335 x 13712 km, 49.6° (Epoch: 26 July)

Date Brightness Start Highest point End Pass type
(mag) Time Alt. Az. Time Alt. Az. Time Alt. Az.
27 Jul 5.3 00:25:06 10° WNW 01:04:35 90° SW 01:07:20 57° SE visible
27 Jul 7.2 20:32:34 10° W 22:16:35 63° N 22:32:20 10° E visible
28 Jul 6.1 02:34:39 10° NW 02:51:05 30° W 02:51:05 30° W visible
28 Jul 5.9 23:19:24 10° WNW 00:12:22 77° NNE 00:17:33 39° ESE visible
29 Jul 7.4 19:21:59 10° WSW 21:20:37 65° N 21:40:48 10° ENE visible
30 Jul 5.6 01:36:24 10° NW 02:01:18 48° WSW 02:01:18 48° WSW visible
30 Jul 6.4 22:08:10 10° WNW 23:19:18 69° NNE 23:27:47 25° E visible
31 Jul 7.6 18:17:02 10° WSW 20:23:03 68° NNW 20:49:05 10° ENE visible
01 Aug 5.3 00:36:21 10° NW 01:10:37 69° SW 01:11:35 66° SSW visible
01 Aug 6.9 20:52:45 10° W 22:25:17 66° N 22:38:04 14° E visible
02 Aug 6.8 02:44:31 10° WNW 02:55:22 18° W 02:55:22 18° W visible
02 Aug 5.5 23:33:16 10° WNW 00:19:02 87° SW 00:21:53 60° SE visible
03 Aug 7.2 19:38:41 10° W 21:30:05 65° N 21:47:24 10° E visible
04 Aug 6.3 01:45:56 10° NW 02:05:42 32° WSW 02:05:42 32° WSW visible
04 Aug 5.9 22:25:42 10° WNW 23:26:38 80° NNE 23:32:13 41° ESE visible
05 Aug 7.4 18:29:59 10° WSW 20:33:23 66° N 20:55:43 10° ENE visible
